metlocid,date_time,avg_rh,std_rh,min_rh,max_rh,n_rh,n_comments
EXEM,11/21/97,40.35294103,3.767458247,34.3,47.9,51,0
EXEM,11/22/97,40.71739594,3.40782144,33.2,48.2,96,0
EXEM,11/23/97,47.09156255,3.669595576,38.15,56.04,96,0
EXEM,11/24/97,59.1672918,5.885423919,45.44,68.45,96,0
EXEM,11/25/97,80.50500019,10.20946252,57.5,93.35,96,0
EXEM,11/26/97,89.81056332,5.101667925,75.43,95.24,71,0
EXEM,11/27/97,92.55906256,2.676050923,88.39,96.76,96,0
EXEM,11/28/97,90.72125006,3.027240843,81.81,95.99,96,0
EXEM,11/29/97,89.99281247,4.831234824,81.72,96.54,96,0
EXEM,11/30/97,72.73270837,14.12237841,53.32,87.61,96,0
EXEM,12/1/97,64.96770819,9.306214655,50.92,77.85,96,0
EXEM,12/2/97,65.95458325,4.076294553,55.26,73.27,96,0
EXEM,12/3/97,75.66802073,7.961504955,64.72,89.47,96,0
EXEM,12/4/97,83.79708378,7.402477054,72.29,96.84,96,0
EXEM,12/5/97,77.82999992,3.953545178,66.27,84.08,96,0
EXEM,12/6/97,72.90177067,9.425514491,57.76,88.73,96,0
EXEM,12/7/97,86.58968727,3.979128297,76.78,91.99,96,0
EXEM,12/8/97,92.00229168,3.115688717,84.65,96.14,96,0
EXEM,12/9/97,80.93479149,4.337775294,72.43,88.75,96,0
EXEM,12/10/97,82.3260417,3.17014591,72.98,90.89,96,0
EXEM,12/11/97,92.12395835,3.593200164,85.97,96.68,96,0
EXEM,12/12/97,70.47208329,9.937516792,57.23,89.03,96,0
EXEM,12/13/97,86.10500002,8.035042449,70.98,96.64,96,0
EXEM,12/14/97,94.40218751,4.898686197,77.07,99.44,96,0
EXEM,12/15/97,77.61989586,5.217254142,72.73,94.67,96,0
EXEM,12/16/97,78.74000025,6.694282229,70.78,98.98,96,0
EXEM,12/17/97,83.86635399,8.078401139,72.37,99.18,96,0
EXEM,12/18/97,86.62937474,7.399684969,76.19,96.74,96,0
EXEM,12/19/97,76.43437545,7.419952848,60.55,89.05,96,0
EXEM,12/20/97,64.96427079,2.887366472,56.85,73.09,96,0
EXEM,12/21/97,68.62718749,7.329685515,50.52,79.67,96,0
EXEM,12/22/97,47.09906244,10.96769389,30.98,66.88,96,0
EXEM,12/23/97,42.12760399,18.15515068,21.1,75.41,96,0
EXEM,12/24/97,76.68333284,7.304341079,65.9,93.87,96,0
EXEM,12/25/97,84.41604161,4.78880927,75.4,94.5,96,0
EXEM,12/26/97,71.84677072,11.60145276,57.9,91.46,96,0
EXEM,12/27/97,58.18302067,8.709731335,45.5,69.89,96,0
EXEM,12/28/97,62.79583335,9.463474659,49.8,78.28,96,0
EXEM,12/29/97,79.32968744,4.057832906,65.6,84.82,96,0
EXEM,12/30/97,80.50916688,5.73773503,71.6,88.91,96,0
EXEM,12/31/97,81.57052096,4.906649228,72.93,88.17,96,0
EXEM,1/1/98,84.84197982,10.9179424,67.06,98.26,96,0
EXEM,1/2/98,61.26291656,7.343899345,46.4,70.77,96,0
EXEM,1/3/98,80.59833288,8.112675031,64.34,93.96,96,0
EXEM,1/4/98,73.66885424,18.31415915,41.9,98.59,96,0
EXEM,1/5/98,58.12197916,5.115875299,50.66,72.12,96,0
EXEM,1/6/98,55.6573958,3.678446697,49.3,63.25,96,0
EXEM,1/7/98,62.48645858,7.910662337,48.43,74.23,96,0
EXEM,1/8/98,77.43479164,15.91953588,52.44,98.56,96,0
EXEM,1/9/98,97.06458338,1.935211823,92.53,99.68,96,0
EXEM,1/10/98,94.56374979,4.383568724,87,99.84,96,0
EXEM,1/11/98,81.27906219,4.037731448,71.49,90.91,96,0
EXEM,1/12/98,76.89604187,4.802825537,67.09,86.55,96,0
EXEM,1/13/98,62.65500017,8.900792547,46.51,73.79,96,0
EXEM,1/14/98,76.24562514,7.184853829,52.12,86.82,96,0
EXEM,1/15/98,80.0737497,5.042904184,70.57,89.5,96,0
EXEM,1/16/98,61.84479165,12.73031029,47.56,80.22,96,0
EXEM,1/17/98,61.17194446,2.143109803,55.93,66.02,72,0
EXEM,1/18/98,85.57868153,13.08186332,68.16,100,91,9
EXEM,1/19/98,63.54729176,9.519535201,46.96,77.71,96,0
EXEM,1/20/98,75.43822908,15.21378539,47.76,97.55,96,0
EXEM,1/21/98,76.87906229,11.3403941,50.81,93.58,96,0
EXEM,1/22/98,77.48052096,6.983701932,68.18,93.33,96,0
EXEM,1/23/98,69.60083342,12.63146266,51.2,89,96,0
EXEM,1/24/98,61.77291683,9.723022749,49.51,82.39,96,0
EXEM,1/25/98,92.84489536,5.521400844,80.25,99.38,96,0
EXEM,1/26/98,92.34312487,6.011516897,81.51,99.94,96,0
EXEM,1/27/98,84.2015624,5.083560216,77.83,95.1,96,0
EXEM,1/28/98,66.40687497,16.82144958,32.33,100,96,1
EXEM,1/29/98,90.45541672,12.12052951,57.85,100,96,16
EXEM,1/30/98,88.36979167,9.274875474,74.62,100,96,11
EXEM,1/31/98,69.81697933,8.092177142,52.64,81.13,96,0
EXEM,2/1/98,64.77947938,3.47870532,54.59,68.89,96,0
EXEM,2/2/98,72.5162499,3.348722482,64.32,77.65,96,0
EXEM,2/3/98,64.672604,12.77638545,32.79,78.02,96,0
EXEM,2/4/98,65.91020823,5.060704126,59.68,76.21,96,0
EXEM,2/5/98,69.09010414,18.74152449,42.67,91.25,96,0
EXEM,2/6/98,82.12572936,9.589102272,62.2,93.7,96,0
EXEM,2/7/98,80.03364579,8.759492657,65.73,94.82,96,0
EXEM,2/8/98,67.63239598,8.973657185,48.02,78.68,96,0
EXEM,2/9/98,80.48416654,9.463733713,54.58,96.74,96,0
EXEM,2/10/98,48.72291674,21.95910341,29.2,93.96,96,0
EXEM,2/11/98,87.01229167,8.730109633,69.72,100,96,17
EXEM,2/12/98,99.05593745,1.64903007,94.24,100,96,63
EXEM,2/13/98,88.45739595,10.33981196,68.44,100,96,4
EXEM,2/14/98,83.8517708,4.956911743,75.22,95.27,96,0
EXEM,2/15/98,89.86406239,7.155563329,78.28,98.84,96,0
EXEM,2/16/98,99.35125009,1.04333088,95.89,100,96,50
EXEM,2/17/98,94.07333342,5.974794532,81.21,100,96,36
EXEM,2/18/98,97.91562494,2.68029874,91.15,100,96,47
EXEM,2/19/98,91.46333345,8.79290922,72.34,100,96,33
EXEM,2/20/98,87.17531252,8.577041118,71.54,100,96,14
EXEM,2/21/98,64.95187501,9.162130486,46.61,89.65,96,0
EXEM,2/22/98,86.18895825,11.6934191,65.89,100,96,18
EXEM,2/23/98,82.89583345,8.144928221,63.37,95.02,96,0
EXEM,2/24/98,90.57781275,4.700986362,81.72,97.51,96,0
EXEM,2/25/98,67.88302092,19.91010034,43.22,99.12,96,0
EXEM,2/26/98,55.50395838,2.405797517,49.85,60.84,96,0
EXEM,2/27/98,68.25520833,11.82287326,49.07,83.6,96,0
EXEM,2/28/98,85.34281218,8.948243245,60.61,95.28,96,0
EXEM,3/1/98,94.27541701,2.673283853,86.78,97.42,96,0
EXEM,3/2/98,88.1070834,5.272995456,78.25,98.07,96,0
EXEM,3/3/98,80.68218748,8.702318068,62.58,92.5,96,0
EXEM,3/4/98,73.28479195,11.76980023,50.39,91.22,96,0
EXEM,3/5/98,69.07746255,10.29022374,55.55,83.3,67,0
EXEM,3/6/98,78.61593779,6.14741597,67.3,89.26,96,0
EXEM,3/7/98,83.36979151,8.118828961,68.37,93.26,96,0
EXEM,3/8/98,61.11125012,8.166628834,49.97,75.68,96,0
EXEM,3/9/98,72.01239594,8.858166479,52.33,93.15,96,0
EXEM,3/10/98,91.42958347,5.410072723,79.43,96.23,96,0
EXEM,3/11/98,66.31427085,12.92481064,47.13,93.89,96,0
EXEM,3/12/98,77.15666664,6.327511042,63.94,87.46,96,0
EXEM,3/13/98,64.48427085,8.936205408,49.88,79.12,96,0
EXEM,3/14/98,74.07375018,3.69302141,63.02,80.91,96,0
EXEM,3/15/98,74.51249941,7.751240043,57.73,86.59,96,0
EXEM,3/16/98,57.0895834,7.400240365,47.04,73.06,96,0
EXEM,3/17/98,64.86041705,5.597601397,51.3,74.16,96,0
EXEM,3/18/98,68.61156241,8.261851627,49.06,80.19,96,0
EXEM,3/19/98,58.36229169,7.404152194,47.04,74.41,96,0
EXEM,3/20/98,82.99916665,4.915546971,73.99,90.53,96,0
EXEM,3/21/98,87.89249984,4.711167315,79.25,94.07,96,0
EXEM,3/22/98,76.10718743,7.020666173,61.53,85.78,96,0
EXEM,3/23/98,89.78020851,1.643519451,83.86,92.4,96,0
EXEM,3/24/98,91.6546878,1.094615643,88.68,93.3,96,0
EXEM,3/25/98,86.65656217,3.681937561,79.04,91.38,96,0
EXEM,3/26/98,59.87395819,8.798511045,45.94,80.81,96,0
EXEM,3/27/98,91.14177068,2.150611912,82.67,93.48,96,0
EXEM,3/28/98,94.53510427,0.896768471,93.16,96.58,96,0
EXEM,3/29/98,95.42718752,1.044672972,91.87,96.86,96,0
EXEM,3/30/98,94.71989568,1.705797152,90.38,96.57,96,0
EXEM,3/31/98,95.04885403,0.861502735,93.31,96.43,96,0
EXEM,4/1/98,93.83822934,2.886231086,85.11,96,96,0
EXEM,4/2/98,94.61500001,1.248058089,90.7,96.19,96,0
EXEM,4/3/98,92.5836459,1.15609598,89.62,94.99,96,0
EXEM,4/4/98,90.42979201,1.849867088,84.77,92.23,96,0
EXEM,4/5/98,88.89187487,2.320845982,83.92,91.61,96,0
EXEM,4/6/98,86.88270847,2.073954388,84.16,92.53,96,0
EXEM,4/7/98,89.2803127,1.955250638,84.41,92.15,96,0
EXEM,4/8/98,91.09989611,1.982991996,84.54,93.44,96,0
EXEM,4/9/98,91.71781254,0.7474406,90.53,93.38,96,0
EXEM,4/10/98,86.53458341,8.885027786,60.42,92.58,96,0
EXEM,4/11/98,59.67479146,3.855154606,49.25,65.29,96,0
EXEM,4/12/98,68.82624992,6.774940268,51.05,77.85,96,0
EXEM,4/13/98,77.87406294,1.500180021,73.24,80.3,96,0
EXEM,4/14/98,82.32708319,3.622800348,76.47,87.26,96,0
EXEM,4/15/98,85.74656224,1.009401277,83.05,87.06,96,0
EXEM,4/16/98,83.45854187,1.146667753,79.54,85.08,96,0
EXEM,4/17/98,83.60229182,0.733330434,81.62,84.92,96,0
EXEM,4/18/98,85.07562502,0.80065114,83.4,86.46,96,0
EXEM,4/19/98,85.0523959,0.991340341,81.88,86.33,96,0
EXEM,4/20/98,84.03604158,1.471853225,80.51,86.43,96,0
EXEM,4/21/98,86.73626834,0.555151832,85.59,87.98,67,0
EXEM,4/22/98,85.82447902,2.604814064,78.3,88.02,96,0
EXEM,4/23/98,88.70479155,0.609066726,87.52,89.68,96,0
EXEM,4/24/98,89.93562492,0.657554816,88.82,91.29,96,0
EXEM,4/25/98,73.6502082,13.04081375,54.59,90.45,96,0
EXEM,4/26/98,67.85666645,13.80635545,54.91,96.3,96,0
EXEM,4/27/98,70.55479173,17.87625185,44,93.44,96,0
EXEM,4/28/98,56.10958322,6.995594973,45.52,68.17,96,0
EXEM,4/29/98,61.75281243,10.01815428,50.42,80.85,96,0
EXEM,4/30/98,81.95041704,3.649388056,77.26,89.93,96,0
EXEM,5/1/98,90.4859376,0.743409498,88.23,91.84,96,0
EXEM,5/2/98,90.32000017,0.415443981,89.46,91.11,96,0
EXEM,5/3/98,88.97916659,0.618729524,87.55,90.44,96,0
EXEM,5/4/98,89.26614571,1.246425949,82.14,91.73,96,0
EXEM,5/5/98,82.85000006,5.787852447,66.36,90.11,96,0
EXEM,5/6/98,82.37802076,1.118433569,78.59,84.41,96,0
EXEM,5/7/98,65.23760442,7.762770383,34.94,76.62,96,0
EXEM,5/8/98,79.94739596,6.437972847,68.42,93.58,96,0
EXEM,5/9/98,78.54072893,13.35944748,53.14,93.76,96,0
EXEM,5/10/98,75.75395834,7.183429334,57.03,87.2,96,0
EXEM,5/11/98,90.17687488,7.18211346,75.21,95.53,96,0
EXEM,5/12/98,89.65479159,5.447835077,75.71,95.85,96,0
EXEM,5/13/98,90.40499965,3.32361395,74,92.84,96,0
EXEM,5/14/98,90.24895795,0.204900247,89.83,90.81,96,0
EXEM,5/15/98,90.09802103,0.27342889,89.43,90.54,96,0
EXEM,5/16/98,74.75874992,12.46366997,59.37,91.24,96,0
EXEM,5/17/98,70.74604174,13.41847514,48.96,95.11,96,0
EXEM,5/18/98,88.68593752,13.84016796,44.7,96.13,96,0
EXEM,5/19/98,96.27020828,0.67475072,94.19,97.45,96,0
EXEM,5/20/98,95.11583352,1.222534552,92.52,96.98,96,0
EXEM,5/21/98,75.14104136,19.81981195,42.53,96.46,96,0
EXEM,5/22/98,74.58718741,19.29405333,42.64,95.1,96,0
EXEM,5/23/98,91.64270822,2.847091414,80.36,94.79,96,0
EXEM,5/24/98,73.26812506,6.873826902,57.9,83.53,96,0
EXEM,5/25/98,83.69125032,1.334197416,80.83,86.03,96,0
EXEM,5/26/98,77.57041629,3.740698131,71.21,85.58,96,0
EXEM,5/27/98,76.67281238,2.12691253,69.88,80.4,96,0
EXEM,5/28/98,81.5409375,5.188595302,75.65,91.88,96,0
EXEM,5/29/98,59.49666659,17.70740108,40.85,90.47,96,0
EXEM,5/30/98,82.26583314,12.89909875,56.28,93.96,96,0
EXEM,5/31/98,84.14250008,4.098679461,70.85,91.86,96,0
EXEM,6/1/98,87.21583358,2.79194158,80.38,93.32,96,0
EXEM,6/2/98,92.360521,0.760109848,89.53,93.24,96,0
EXEM,6/3/98,82.7970833,3.814909473,75.64,90.8,96,0
EXEM,6/4/98,73.74708319,3.474792772,63.6,81.16,96,0
EXEM,6/5/98,62.84718768,16.00668177,43.69,90.76,96,0
EXEM,6/6/98,46.82249991,5.216748882,37.07,61.82,96,0
EXEM,6/7/98,85.49989585,16.51579144,45.79,98.52,96,0
EXEM,6/8/98,99.16322899,0.314245743,98.37,99.92,96,0
EXEM,6/9/98,92.51812518,11.64454423,45.62,99.62,96,0
EXEM,6/10/98,75.9338541,20.83213137,40.87,96.57,96,0
EXEM,6/11/98,90.14729126,5.714731888,71.68,95.32,96,0
EXEM,6/12/98,97.30208349,1.50567452,88.85,98.67,96,0
EXEM,6/13/98,56.39687518,22.04356146,33.36,98.05,96,0
EXEM,6/14/98,63.67104169,11.27539436,43.26,83.56,96,0
EXEM,6/15/98,67.67572931,12.60131254,51.31,83.57,96,0
EXEM,6/16/98,75.6773957,14.42235976,52.07,92.71,96,0
EXEM,6/17/98,69.39427066,6.16025735,56.79,88.39,96,0
EXEM,6/18/98,86.26041635,7.094344283,75.43,94.63,96,0
EXEM,6/19/98,93.46312467,0.259888135,92.78,94.14,96,0
EXEM,6/20/98,93.29166675,1.752961729,80.51,94.23,96,0
EXEM,6/21/98,72.23552092,12.90605685,55.16,93.05,96,0
EXEM,6/22/98,89.11447938,6.587596165,76.53,94.4,96,0
EXEM,6/23/98,83.05114551,12.80379076,48.16,95.65,96,0
EXEM,6/24/98,95.54010407,2.04008392,90.36,97.27,96,0
EXEM,6/25/98,91.6707294,10.83906537,58.26,97.16,96,0
EXEM,6/26/98,59.11718766,3.406775231,54.02,68.82,96,0
EXEM,6/27/98,82.43979176,16.24230289,55.47,96.24,96,0
EXEM,6/28/98,92.40520835,4.333759872,80.94,95.71,96,0
EXEM,6/29/98,77.55989583,2.44124224,72.04,82.47,96,0
EXEM,6/30/98,76.96406253,7.383315169,66.07,87.43,96,0
EXEM,7/1/98,64.88677069,16.17300056,46.7,94.34,96,0
EXEM,7/2/98,66.92416656,16.94589808,46.81,94.91,96,0
EXEM,7/3/98,71.92656227,7.546724691,51.67,84.08,96,0
EXEM,7/4/98,70.94187518,19.7631551,35.81,93.35,96,0
EXEM,7/5/98,86.13718756,3.740936198,66.48,92.84,96,0
EXEM,7/6/98,85.27916662,8.32722781,64.43,93.7,96,0
EXEM,7/7/98,91.90770833,0.255727897,91.26,92.43,96,0
EXEM,7/8/98,92.88312546,0.311026999,92.18,93.33,96,0
EXEM,7/9/98,92.9492708,0.596123005,91.3,93.73,96,0
EXEM,7/10/98,90.65177091,0.480737958,90.03,92.06,96,0
EXEM,7/11/98,90.44968748,0.199622773,89.99,90.84,96,0
EXEM,7/12/98,90.02458294,0.276130978,89.49,90.54,96,0
EXEM,7/13/98,90.01208321,0.418774759,88.66,90.62,96,0
EXEM,7/14/98,89.70406246,0.210771009,89.17,90.22,96,0
EXEM,7/15/98,91.13729135,0.971878772,89.19,92.8,96,0
EXEM,7/16/98,65.21614591,8.776361302,47.43,85.7,96,0
EXEM,7/17/98,86.70718729,10.84362361,47.07,93.08,96,0
EXEM,7/18/98,65.44364599,10.29967246,54.47,88.18,96,0
EXEM,7/19/98,75.52437496,6.027573474,60.64,83.13,96,0
EXEM,7/20/98,61.88572898,22.0503921,30.82,83.71,96,0
EXEM,7/21/98,85.92697922,1.469857386,80.88,87.23,96,0
EXEM,7/22/98,72.04791661,16.06908203,43.81,87.24,96,0
EXEM,7/23/98,85.63541675,2.93649188,68.88,87.22,96,0
EXEM,7/24/98,62.59739566,7.00148959,45.66,71.45,96,0
EXEM,7/25/98,73.32812488,8.448180144,48.03,82.23,96,0
EXEM,7/26/98,67.98281256,7.712278932,45.01,78.34,96,0
EXEM,7/27/98,79.94020851,2.034153108,74.9,82.4,96,0
EXEM,7/28/98,66.14874999,8.079154664,53,82.29,96,0
EXEM,7/29/98,82.91041676,3.639778135,71.16,85.57,96,0
EXEM,7/30/98,82.65291691,3.159844572,75.67,85.62,96,0
EXEM,7/31/98,84.13854178,0.746833367,81.79,85.39,96,0
EXEM,8/1/98,83.79062502,0.869079066,81.73,85.39,96,0
EXEM,8/2/98,81.85125041,1.681715293,77.83,84.89,96,0
EXEM,8/3/98,82.54864589,2.24452288,77.57,84.9,96,0
EXEM,8/4/98,53.09499983,7.189378525,43.2,83.2,96,0
EXEM,8/5/98,56.63364569,19.82897954,34.34,90.04,96,0
EXEM,8/6/98,33.28739574,1.862567637,31.19,41.72,96,0
EXEM,8/7/98,64.03406231,10.08039999,42.8,78.04,96,0
EXEM,8/8/98,73.24093759,6.118416918,49.5,80.42,96,0
EXEM,8/9/98,84.35270802,6.643708383,67.39,92.93,96,0
EXEM,8/10/98,76.17979153,11.60333061,54.53,92.07,96,0
EXEM,8/11/98,74.23354204,10.73487294,44.25,84.96,96,0
EXEM,8/12/98,87.07333334,1.722290919,81.18,89.07,96,0
EXEM,8/13/98,80.89895813,4.091418589,75.97,87.89,96,0
EXEM,8/14/98,87.21218761,2.569141602,79.63,89.62,96,0
EXEM,8/15/98,87.23843733,1.105151658,83.9,88.54,96,0
EXEM,8/16/98,87.31270878,0.426280115,86.28,88.15,96,0
EXEM,8/17/98,86.8563544,0.286371414,86.16,87.48,96,0
EXEM,8/18/98,86.64208333,1.421726985,82.8,88.23,96,0
EXEM,8/19/98,86.92531252,1.48441969,82.56,88.41,96,0
EXEM,8/20/98,87.72270823,0.429561697,86.38,88.43,96,0
EXEM,8/21/98,84.78541636,3.060567339,77.73,87.87,96,0
EXEM,8/22/98,81.03947949,1.212568726,77.75,83.76,96,0
EXEM,8/23/98,83.3522919,0.755272786,81.45,84.72,96,0
EXEM,8/24/98,86.35385426,0.823047899,83.59,87.53,96,0
EXEM,8/25/98,87.20260398,0.474093568,86.03,88.09,96,0
EXEM,8/26/98,87.62104138,0.213090015,87.06,87.97,96,0
EXEM,8/27/98,87.47500014,0.198303223,87.06,87.89,96,0
EXEM,8/28/98,87.28562466,0.35263778,86.55,88.01,96,0
EXEM,8/29/98,71.06999977,16.73774136,40.04,87.95,96,0
EXEM,8/30/98,75.34479141,15.7920896,39.54,88.61,96,0
EXEM,8/31/98,85.73239613,1.355307201,82.16,88.38,96,0
EXEM,9/1/98,83.01062473,2.207026185,78.03,86.27,96,0
EXEM,9/2/98,86.30906256,1.941464068,81.18,87.99,96,0
EXEM,9/3/98,77.5341665,10.98919335,56.99,87.79,96,0
EXEM,9/4/98,82.5794789,2.349903708,75.11,85.87,96,0
EXEM,9/5/98,79.14062516,2.111543291,75.65,83.39,96,0
EXEM,9/6/98,82.55375012,2.16829695,74.78,84.93,96,0
EXEM,9/7/98,83.83052095,0.969475719,80.49,85.33,96,0
EXEM,9/8/98,80.48427113,2.42305231,75.91,85.02,96,0
EXEM,9/9/98,82.53385448,0.893384598,79.63,84.71,96,0
EXEM,9/10/98,83.11218739,1.167361644,80.61,85.22,96,0
EXEM,9/11/98,84.27416658,0.443081531,83.36,85.01,96,0
EXEM,9/12/98,84.75729156,1.776857324,82.65,89.46,96,0
EXEM,9/13/98,67.57791622,9.804243908,56.01,89.01,96,0
EXEM,9/14/98,72.98750043,4.511752802,66.24,82.2,96,0
EXEM,9/15/98,80.9087499,2.480979004,74.13,84.66,96,0
EXEM,9/16/98,79.87583296,2.329837524,74.93,83.38,96,0
EXEM,9/17/98,82.27156274,1.581091804,79.71,86.48,96,0
EXEM,9/18/98,86.34354154,2.195355307,81.36,88.85,96,0
EXEM,9/19/98,85.23989622,2.473775121,79.57,88.23,96,0
EXEM,9/20/98,83.61395868,2.797157009,78.16,86.42,96,0
EXEM,9/21/98,85.19781216,2.001974441,80.21,87.76,96,0
EXEM,9/22/98,86.68354162,0.610561566,85.03,87.55,96,0
EXEM,9/23/98,85.57708359,1.697300908,82.2,87.43,96,0
EXEM,9/24/98,85.68802118,1.283922865,83.12,87.28,96,0
EXEM,9/25/98,80.33822926,5.158314529,67.66,87.33,96,0
EXEM,9/26/98,83.58364582,3.649196169,76.66,87.82,96,0
EXEM,9/27/98,84.69218763,1.693963425,80.88,88.51,96,0
EXEM,9/28/98,87.09812506,0.939368406,84.9,88.46,96,0
EXEM,9/29/98,88.32760437,1.603963642,80.98,90.69,96,0
EXEM,9/30/98,71.63822909,12.02389564,53.07,92.68,96,0
EXEM,10/1/98,77.44020832,13.8781102,49.71,99.52,96,0
EXEM,10/2/98,57.13947956,10.2324417,36.99,70.66,96,0
EXEM,10/3/98,64.22052062,4.784389563,55.79,74.13,96,0
EXEM,10/4/98,68.53489602,5.651138561,60.48,81.75,96,0
EXEM,10/5/98,88.64468733,6.49886604,77.74,97.69,96,0
EXEM,10/6/98,94.81010437,2.816401823,87.68,97.63,96,0
EXEM,10/7/98,91.30677056,6.296752334,76.71,97.26,96,0
EXEM,10/8/98,92.19083317,4.72391915,66.91,95.76,96,0
EXEM,10/9/98,83.48656269,10.56981495,63.59,94.82,96,0
EXEM,10/10/98,81.52458306,14.34570468,44.81,95.49,96,0
EXEM,10/11/98,77.3740627,5.708990806,53.46,88.1,96,0
EXEM,10/12/98,69.7873958,15.28765343,45.11,91.56,96,0
EXEM,10/13/98,56.58770839,8.10641422,42.75,70.68,96,0
EXEM,10/14/98,68.41989605,12.00535187,51.84,94.3,96,0
EXEM,10/15/98,54.06395837,22.63613528,34.74,97.48,96,0
EXEM,10/16/98,39.54020826,7.150590704,30.58,57.96,96,0
EXEM,10/17/98,58.19135408,6.174366906,47.47,70.31,96,0
EXEM,10/18/98,42.91312488,16.89924016,25.12,87.84,96,0
EXEM,10/19/98,88.61031238,2.471204749,82.12,92.87,96,0
EXEM,10/20/98,85.64531255,3.998404144,77.61,90.81,96,0
EXEM,10/21/98,79.96125054,10.97741295,57.01,92.57,96,0
EXEM,10/22/98,69.10552061,10.65945201,52.46,86.06,96,0
EXEM,10/23/98,62.09656254,7.213574265,46.41,70,96,0
EXEM,10/24/98,65.1709377,2.601078565,58.41,72.26,96,0
EXEM,10/25/98,69.24499977,15.88008394,50.27,91.14,96,0
EXEM,10/26/98,64.22999998,2.44905404,57.51,67.61,96,0
EXEM,10/27/98,56.93114587,9.509618595,37.96,70.96,96,0
EXEM,10/28/98,64.27500002,9.021093997,44.7,78.68,96,0
EXEM,10/29/98,62.45895839,5.562235203,48.54,71.23,96,0
EXEM,10/30/98,64.39874971,6.708392402,51.39,77.5,96,0
EXEM,10/31/98,85.41968743,5.80528052,67.33,91.5,96,0
EXEM,11/1/98,81.06114574,8.918868936,61.19,94.76,96,0
EXEM,11/2/98,71.26312482,4.627561875,62.12,79.16,96,0
EXEM,11/3/98,65.35885421,4.954871076,50.98,70.87,96,0
EXEM,11/4/98,56.54531256,6.309498232,39.67,65.46,96,0
EXEM,11/5/98,44.53333332,12.29104845,26.17,62.04,96,0
EXEM,11/6/98,35.75447919,10.46837421,26.43,54.8,96,0
EXEM,11/7/98,47.05218746,8.96907586,29.12,58.52,96,0
EXEM,11/8/98,48.98864577,20.50179589,30.08,92.55,96,0
EXEM,11/9/98,60.05874991,12.45317105,35.81,81.58,96,0
EXEM,11/10/98,61.55885394,11.12702329,35.92,80.18,96,0
EXEM,11/11/98,70.70374997,3.77493202,63.27,79.73,96,0
EXEM,11/12/98,82.97708325,10.76489076,63.52,93.35,96,0
EXEM,11/13/98,69.9788543,11.53484626,50.35,90.77,96,0
EXEM,11/14/98,68.770625,6.675311474,57.18,85.07,96,0
EXEM,11/15/98,58.28374998,11.35646754,33.08,80.47,96,0
EXEM,11/16/98,62.16947885,8.575170243,41.21,92.57,96,0
EXEM,11/17/98,67.46604172,18.87291332,38.1,94.6,96,0
EXEM,11/18/98,73.55218716,11.32020001,56.9,95.09,96,0
EXEM,11/19/98,61.55343743,11.09674613,41.45,82.77,96,0
EXEM,11/20/98,52.1095833,4.784183058,40.11,59.71,96,0
EXEM,11/21/98,50.61916657,3.299882957,42.3,55.43,96,0
EXEM,11/22/98,76.36656272,14.28615819,50.94,92.8,96,0
EXEM,11/23/98,54.28854183,6.816943212,40.24,65.79,96,0
EXEM,11/24/98,54.03218734,6.154707264,45.53,62.8,96,0
EXEM,11/25/98,58.16677078,5.397855078,51.94,71.03,96,0
EXEM,11/26/98,79.3733333,9.561680693,65.52,98.25,96,0
EXEM,11/27/98,73.65333343,3.804692338,66.57,80.02,96,0
EXEM,11/28/98,65.92052078,4.513713746,60.34,77.39,96,0
EXEM,11/29/98,73.2945832,9.698198483,55.94,89.64,96,0
EXEM,11/30/98,58.86500013,5.014336263,49.71,75.32,96,0
EXEM,12/1/98,52.04958336,11.48272444,38.76,79.04,96,0
EXEM,12/2/98,75.20052087,7.00021125,48.3,83.61,96,0
EXEM,12/3/98,60.1905206,7.288279501,40.3,72.56,96,0
EXEM,12/4/98,82.49885384,8.444946102,67.59,99.69,96,0
EXEM,12/5/98,64.46697891,13.83923766,45.26,85.99,96,0
EXEM,12/6/98,73.50093754,6.150179948,56.08,83.47,96,0
EXEM,12/7/98,73.20062494,4.658388196,63.29,80.85,96,0
EXEM,12/8/98,85.12291678,4.124800729,78.98,91.7,96,0
EXEM,12/9/98,77.94760394,7.245102303,65.01,90.85,96,0
EXEM,12/10/98,72.79010415,2.199504968,68.74,76.87,96,0
EXEM,12/11/98,80.34624974,6.941732,68.34,91.4,96,0
EXEM,12/12/98,81.62791665,10.15793518,67.6,94.84,96,0
EXEM,12/13/98,67.72177052,6.97157889,53.98,80.02,96,0
EXEM,12/14/98,74.73635403,5.323380333,66.56,87.26,96,0
EXEM,12/15/98,78.92906268,4.019170064,69.14,86.99,96,0
EXEM,12/16/98,70.33958336,11.52569009,50.45,88.01,96,0
EXEM,12/17/98,72.10677083,5.355888611,63.47,87.04,96,0
EXEM,12/18/98,59.15989574,3.865529536,54.77,71.84,96,0
EXEM,12/19/98,37.04031251,14.50960698,21,75.58,96,0
EXEM,12/20/98,59.22916685,20.89280928,20.6,85.35,96,0
EXEM,12/21/98,57.67656231,9.902207979,44.39,78.2,96,0
EXEM,12/22/98,50.21312497,11.24859536,22.8,74.4,96,0
EXEM,12/23/98,31.24416657,13.74397059,20.2,68.74,96,0
EXEM,12/24/98,27.08822918,8.841403568,19.8,72.3,96,0
EXEM,12/25/98,62.01989589,22.07655363,24,85.27,96,0
EXEM,12/26/98,47.3433333,7.633010168,24.9,58.19,96,0
EXEM,12/27/98,58.94218735,8.315635528,42.91,74.77,96,0
EXEM,12/28/98,60.21260428,7.313176086,51,76.06,96,0
EXEM,12/29/98,71.948958,3.03611025,62.71,75.89,96,0
EXEM,12/30/98,67.34197923,8.170363573,53.88,85.87,96,0
EXEM,12/31/98,66.88177085,7.538929336,55.9,87.77,96,0
EXEM,1/1/99,68.0121876,10.49817337,52.38,86.97,96,0
EXEM,1/2/99,56.65333331,14.52706942,24.6,88.11,96,0
EXEM,1/3/99,29.04000002,6.765782043,22.4,44,96,0
EXEM,1/4/99,65.42916699,12.04273204,41.5,89.18,96,0
EXEM,1/5/99,66.22791656,14.655733,30.2,87.83,96,0
EXEM,1/6/99,74.83093743,10.99287066,50.1,89.08,96,0
EXEM,1/7/99,72.61677086,10.44434757,50.4,91.18,96,0
EXEM,1/8/99,76.26072939,7.33420259,60.38,84.91,96,0
EXEM,1/9/99,55.00062493,8.198195916,46.4,69.83,96,0
EXEM,1/10/99,69.09593753,9.378892313,51.24,92.49,96,0
EXEM,1/11/99,73.1452084,18.67708354,45.85,93.92,96,0
EXEM,1/12/99,64.49385409,11.87178861,47.4,88.46,96,0
EXEM,1/13/99,72.11223881,9.491844145,47.23,88.8,67,0
EXEM,1/14/99,41.14197914,13.09365126,25.4,70.27,96,0
EXEM,1/15/99,42.97249981,19.05642325,22.1,77.29,96,0
EXEM,1/16/99,73.57739611,9.960578921,52.2,87.39,96,0
EXEM,1/17/99,82.86437496,2.40771202,76.7,88.76,96,0
EXEM,1/18/99,58.33895826,7.456844949,51.09,79.55,96,0
EXEM,1/19/99,53.59666685,7.115462991,46,74.08,96,0
EXEM,1/20/99,67.96677073,13.34314738,43.3,86.45,96,0
EXEM,1/21/99,64.38916679,11.57828567,33.8,85.47,96,0
EXEM,1/22/99,53.39374989,9.825032894,26.5,79.74,96,0
EXEM,1/23/99,65.45781227,10.87246415,45.4,87.34,96,0
EXEM,1/24/99,63.82697908,5.740265948,50.8,78.72,96,0
EXEM,1/25/99,74.44041642,10.89439655,58.83,90.37,96,0
EXEM,1/26/99,58.73260403,8.140523611,48.6,83.06,96,0
EXEM,1/27/99,53.89895825,3.995363423,45.5,62.08,96,0
EXEM,1/28/99,62.61697892,11.54074959,47.7,87.06,96,0
EXEM,1/29/99,84.3702089,6.28129306,70.16,94.94,96,0
EXEM,1/30/99,85.35291672,2.081707881,80.88,89.61,96,0
EXEM,1/31/99,82.84520825,6.25711871,72.28,96.04,96,0
EXEM,2/1/99,86.74083336,5.636608098,71.84,97.51,96,0
EXEM,2/2/99,75.11343757,5.287622447,68.87,90.76,96,0